weather.gov     
National Weather Service

Regional Weather Roundup
NWS Homepage
This page is being discontinued on March 12, 2014.
The same data is available at this site. Please update your bookmarks.
Thank you, and we apologize for the inconvenience.
Please send an email to SR-SRH.Webmaster@noaa.gov with any concerns.


Current Version
Previous Version:    01  02  03  04  05  06  07  08  09  10  11  12  13  14  15  16  17  18  19  20  21  22  23  24  25  
[Printable]
955
ASUS42 KKEY 271410
RWRKEY

FLORIDA REGIONAL WEATHER ROUNDUP FOR THE FLORIDA KEYS
NATIONAL WEATHER SERVICE KEY WEST FLORIDA
900 AM EST TUE JAN 27 2015

...SOUTH FLORIDA AND THE KEYS...

CITY           SKY/WX    TMP DP  RH WIND       PRES   REMARKS
FORT MYERS     SUNNY     57  44  62 N9        30.07R
SW REGIONAL AP SUNNY     55  44  66 N9        30.07R
NAPLES         SUNNY     58  46  64 NW7       30.08R
MIAMI          MOSUNNY   57  45  64 N14       30.07R
WEST KENDALL   SUNNY     58  48  69 N15       30.07R
HOMESTEAD      SUNNY     57  49  74 NW10      30.06R
MARATHON       MOSUNNY   67  54  63 NW9G16    30.06R
BOCA CHICA NAS MOSUNNY   68  52  56 NW15      30.07R
KEY WEST INTL  SUNNY     67  53  61 NW12      30.07R

...INTERNATIONAL WEATHER...

CITY           SKY/WX    TMP DP  RH WIND       PRES   REMARKS
NASSAU BAHAMAS PTSUNNY   66  52  59 W18       30.01R
CANCUN MEXICO  MOSUNNY   61  55  82 W6        30.14R
COZUMEL MEXICO SUNNY     64  57  77 NW10      30.15R

ADJACENT COASTAL WATERS...

STATION/POSITION TIME  SKY/WX   TEMP    WIND        PRES    WAVE
                                AIR SEA DIR/SP/G            HT/PER
                 (UTC)          (F)     (DEG/KT/KT) (MB)    (FT/S)
PULASKI SHOAL LI NOT AVBL
SAND KEY         NOT AVBL
SOMBRERO KEY     NOT AVBL
LONG KEY         NOT AVBL
MOLASSES REEF    NOT AVBL
FOWEY ROCKS      NOT AVBL
Buoy 42080       NOT AVBL

$$




U.S. Dept. of Commerce
NOAA National Weather Service
1325 East West Highway
Silver Spring, MD 20910
E-mail: w-nws.webmaster@noaa.gov
Page last modified: May 16, 2007
NATIONAL WEATHER SERVICE: for Safety, for Work, for Fun - FOR LIFE